Location: Lecco
(45.8566°N, 9.3977°E)
Time: 02:47:50
(UTC+02:00)

Courier 1B Rocket - Pass Details

Date: 02 September 2019
Orbit: 920 x 1202 km, 28.2° (Epoch: 17 October)

Event Time Altitude Azimuth Distance (km) Brightness Sun altitude
Rises 04:34:05 0° 246° (WSW) 3,750 - -21.2°
Reaches altitude 10° 04:38:52 10° 216° (SW) 2,871 - -20.5°
Maximum altitude 04:41:12 12° 197° (SSW) 2,771 - -20.2°
Exits shadow 04:43:22 10° 179° (S) 2,914 7.2 -19.9°
Drops below altitude 10° 04:43:36 10° 177° (S) 2,940 7.2 -19.9°
Sets 04:48:41 0° 148° (SSE) 3,968 8.2 -19.1°
